Check out our new BloomSky Weather System.

Active alerts

Galveston, TX
  Details for Galveston, TX Rip Current Statement


Thunder radar  blitzortung!


Rain radar more information rain snow radar


Visit our other weather sites:

Template documentation
and downloads

And another site



Weather Underground History page Text

Daily Summary for March 25, 2017 Units:  English    Metric   Both
« Previous Day
Next Day »
Daily Weekly Monthly Yearly Custom
  High: Low: Average:
Temperature: TemperatureF °F 60.1 °F 71.3 °F
Dew Point: DewpointF °F 52.5 °F 59.3 °F
Humidity: Humidity % 39 % 69 %
Wind Speed: WindSpeedMPH mph 0.0 mph 2.4 mph
Wind Gust: WindSpeedGustMPH mph - -
Wind:- - WSW
Pressure: PressureIn in 29.90 in -
Precipitation: 0.09 in    
Historical Graphs
 
 
Tabular Data for March 25, 2017
Time Temperature Dew Point Pressure Wind Wind Speed Wind Gust Humidity Rainfall Rate (Hourly)
TemperatureF °F DewpointF °F PressureIn in Calm     Humidity % HourlyPrecipIn in
00:03 69.6 °F 67.5 °F 29.93 in South 4.0 mph 10.0 mph 93 % 0.00 in
00:08 69.4 °F 67.3 °F 29.92 in SSE 3.0 mph 10.0 mph 93 % 0.00 in
00:13 69.3 °F 66.9 °F 29.93 in SSW 3.0 mph 8.0 mph 92 % 0.00 in
00:24 68.5 °F 65.5 °F 29.93 in WSW 3.0 mph 8.0 mph 90 % 0.00 in
00:29 68.4 °F 64.6 °F 29.93 in SSE 3.0 mph 8.0 mph 88 % 0.00 in
00:34 68.0 °F 63.7 °F 29.93 in SE 3.0 mph 7.0 mph 86 % 0.00 in
00:39 68.0 °F 63.3 °F 29.93 in South 4.0 mph 7.0 mph 85 % 0.00 in
00:44 67.8 °F 62.8 °F 29.93 in SSW 3.0 mph 7.0 mph 84 % 0.00 in
00:49 67.5 °F 62.4 °F 29.93 in South 2.0 mph 7.0 mph 84 % 0.00 in
00:54 67.3 °F 62.2 °F 29.93 in SSW 2.0 mph 6.0 mph 84 % 0.00 in
00:59 66.9 °F 61.9 °F 29.92 in SSE 1.0 mph 5.0 mph 84 % 0.00 in
01:04 66.7 °F 61.3 °F 29.93 in SSE 2.0 mph 4.0 mph 83 % 0.00 in
01:09 66.6 °F 61.2 °F 29.93 in SE 3.0 mph 4.0 mph 83 % 0.00 in
01:14 66.6 °F 61.0 °F 29.93 in SSE 1.0 mph 4.0 mph 82 % 0.00 in
01:19 66.6 °F 61.2 °F 29.93 in SSE 2.0 mph 4.0 mph 83 % 0.00 in
01:24 66.7 °F 61.7 °F 29.93 in SSW 4.0 mph 4.0 mph 84 % 0.00 in
01:29 66.9 °F 62.6 °F 29.93 in SSW 2.0 mph 5.0 mph 86 % 0.00 in
01:34 67.5 °F 63.9 °F 29.93 in SSE 4.0 mph 5.0 mph 88 % 0.00 in
01:39 68.0 °F 65.3 °F 29.93 in SE 5.0 mph 6.0 mph 91 % 0.00 in
01:44 68.9 °F 66.7 °F 29.93 in South 4.0 mph 7.0 mph 93 % 0.00 in
01:49 69.6 °F 67.5 °F 29.93 in South 8.0 mph 9.0 mph 93 % 0.00 in
01:54 70.3 °F 68.5 °F 29.93 in South 3.0 mph 11.0 mph 94 % 0.00 in
01:59 70.5 °F 68.7 °F 29.93 in South 7.0 mph 12.0 mph 94 % 0.00 in
02:04 70.9 °F 69.1 °F 29.93 in South 4.0 mph 12.0 mph 94 % 0.00 in
02:09 71.1 °F 69.3 °F 29.92 in South 7.0 mph 12.0 mph 94 % 0.00 in
02:19 71.2 °F 69.4 °F 29.93 in SSE 11.0 mph 13.0 mph 94 % 0.00 in
02:24 71.2 °F 69.4 °F 29.92 in SW 6.0 mph 15.0 mph 94 % 0.00 in
02:29 71.2 °F 69.4 °F 29.92 in SW 5.0 mph 15.0 mph 94 % 0.00 in
02:34 71.2 °F 69.4 °F 29.92 in South 4.0 mph 15.0 mph 94 % 0.00 in
02:39 71.2 °F 69.4 °F 29.92 in South 8.0 mph 12.0 mph 94 % 0.00 in
02:44 71.2 °F 69.4 °F 29.92 in SSE 2.0 mph 12.0 mph 94 % 0.00 in
02:49 71.2 °F 69.8 °F 29.92 in South 11.0 mph 11.0 mph 95 % 0.00 in
02:54 71.4 °F 70.0 °F 29.92 in South 6.0 mph 11.0 mph 95 % 0.00 in
02:59 71.4 °F 70.0 °F 29.92 in SSW 5.0 mph 11.0 mph 95 % 0.00 in
03:04 71.4 °F 70.0 °F 29.92 in South 5.0 mph 11.0 mph 95 % 0.00 in
03:09 71.4 °F 70.0 °F 29.92 in SW 6.0 mph 11.0 mph 95 % 0.00 in
03:14 71.4 °F 70.0 °F 29.92 in South 3.0 mph 11.0 mph 95 % 0.00 in
03:19 71.6 °F 70.2 °F 29.92 in SSE 4.0 mph 11.0 mph 95 % 0.00 in
03:24 71.6 °F 70.2 °F 29.92 in South 5.0 mph 11.0 mph 95 % 0.00 in
03:29 71.6 °F 69.8 °F 29.92 in SSW 4.0 mph 13.0 mph 94 % 0.00 in
03:35 71.6 °F 70.2 °F 29.91 in South 5.0 mph 13.0 mph 95 % 0.00 in
03:40 71.6 °F 70.2 °F 29.92 in SSW 2.0 mph 13.0 mph 95 % 0.00 in
03:45 71.6 °F 70.2 °F 29.91 in South 2.0 mph 9.0 mph 95 % 0.00 in
03:50 71.6 °F 70.2 °F 29.91 in South 4.0 mph 11.0 mph 95 % 0.00 in
03:55 71.6 °F 70.2 °F 29.91 in SSW 5.0 mph 11.0 mph 95 % 0.00 in
04:00 71.6 °F 70.2 °F 29.91 in SSE 3.0 mph 11.0 mph 95 % 0.00 in
04:05 71.6 °F 70.2 °F 29.91 in South 5.0 mph 13.0 mph 95 % 0.00 in
04:10 71.6 °F 70.2 °F 29.91 in SW 6.0 mph 13.0 mph 95 % 0.00 in
04:15 71.6 °F 70.2 °F 29.91 in SSW 7.0 mph 13.0 mph 95 % 0.00 in
04:20 71.8 °F 70.3 °F 29.92 in South 2.0 mph 9.0 mph 95 % 0.00 in
04:25 71.8 °F 70.3 °F 29.92 in SSW 3.0 mph 11.0 mph 95 % 0.00 in
04:30 71.8 °F 70.0 °F 29.92 in SSW 5.0 mph 11.0 mph 94 % 0.00 in
04:35 71.8 °F 70.0 °F 29.92 in SSE 6.0 mph 11.0 mph 94 % 0.00 in
04:40 72.0 °F 70.2 °F 29.92 in SSW 7.0 mph 11.0 mph 94 % 0.00 in
04:45 72.0 °F 70.2 °F 29.92 in SSW 6.0 mph 11.0 mph 94 % 0.00 in
04:50 72.0 °F 70.2 °F 29.91 in SSW 5.0 mph 11.0 mph 94 % 0.00 in
04:55 72.0 °F 70.2 °F 29.91 in SSW 4.0 mph 12.0 mph 94 % 0.00 in
05:00 72.1 °F 70.0 °F 29.91 in South 4.0 mph 12.0 mph 93 % 0.00 in
05:05 72.1 °F 70.0 °F 29.92 in South 8.0 mph 12.0 mph 93 % 0.00 in
05:10 72.1 °F 70.0 °F 29.92 in Calm   10.0 mph 93 % 0.00 in
05:15 72.1 °F 70.0 °F 29.92 in SSW 4.0 mph 14.0 mph 93 % 0.00 in
05:20 72.1 °F 70.0 °F 29.92 in SW 5.0 mph 14.0 mph 93 % 0.00 in
05:25 72.3 °F 69.8 °F 29.91 in SW 2.0 mph 14.0 mph 92 % 0.00 in
05:30 72.3 °F 69.8 °F 29.91 in South 1.0 mph 10.0 mph 92 % 0.00 in
05:35 72.3 °F 69.8 °F 29.92 in SSW 4.0 mph 10.0 mph 92 % 0.00 in
05:40 72.3 °F 69.8 °F 29.93 in West 3.0 mph 9.0 mph 92 % 0.00 in
05:45 72.3 °F 69.8 °F 29.93 in WSW 6.0 mph 9.0 mph 92 % 0.08 in
05:50 72.1 °F 70.0 °F 29.94 in WSW 3.0 mph 10.0 mph 93 % 0.09 in
05:55 72.0 °F 69.8 °F 29.94 in WSW 3.0 mph 10.0 mph 93 % 0.09 in
06:00 71.8 °F 70.0 °F 29.94 in WSW 3.0 mph 10.0 mph 94 % 0.09 in
06:05 71.6 °F 69.8 °F 29.94 in West 4.0 mph 10.0 mph 94 % 0.09 in
06:10 71.4 °F 69.6 °F 29.94 in SW 3.0 mph 8.0 mph 94 % 0.09 in
06:15 71.4 °F 69.6 °F 29.94 in WSW 2.0 mph 8.0 mph 94 % 0.09 in
06:20 71.2 °F 69.4 °F 29.95 in NW 3.0 mph 7.0 mph 94 % 0.09 in
06:21 71.2 °F 69.8 °F 29.95 in NW 2.0 mph 7.0 mph 95 % 0.09 in
06:26 71.1 °F 69.6 °F 29.95 in SSW 2.0 mph 7.0 mph 95 % 0.09 in
06:31 71.1 °F 69.6 °F 29.95 in SSW 1.0 mph 8.0 mph 95 % 0.09 in
06:36 71.1 °F 69.6 °F 29.95 in SSW 2.0 mph 8.0 mph 95 % 0.09 in
06:41 70.9 °F 69.4 °F 29.96 in WNW 2.0 mph 8.0 mph 95 % 0.09 in
06:46 70.9 °F 69.4 °F 29.95 in WSW 1.0 mph 5.0 mph 95 % 0.01 in
06:51 70.5 °F 69.1 °F 29.96 in WSW 1.0 mph 4.0 mph 95 % 0.00 in
06:56 70.3 °F 68.9 °F 29.96 in Calm   4.0 mph 95 % 0.00 in
07:01 70.3 °F 68.9 °F 29.96 in Calm   4.0 mph 95 % 0.00 in
07:06 70.2 °F 68.7 °F 29.96 in West 1.0 mph 4.0 mph 95 % 0.00 in
07:11 70.2 °F 68.7 °F 29.96 in West 2.0 mph 4.0 mph 95 % 0.00 in
07:16 70.0 °F 68.7 °F 29.96 in North 1.0 mph 5.0 mph 96 % 0.00 in
07:21 70.0 °F 68.5 °F 29.97 in NW 2.0 mph 5.0 mph 95 % 0.00 in
07:26 69.3 °F 67.1 °F 29.97 in WNW 3.0 mph 10.0 mph 93 % 0.00 in
07:31 68.7 °F 66.4 °F 29.97 in NW 4.0 mph 10.0 mph 92 % 0.00 in
07:38 68.5 °F 66.4 °F 29.98 in NNW 1.0 mph 10.0 mph 93 % 0.00 in
07:43 68.4 °F 66.0 °F 29.98 in NW 3.0 mph 10.0 mph 92 % 0.00 in
07:48 67.8 °F 65.1 °F 29.98 in West 3.0 mph 8.0 mph 91 % 0.00 in
07:53 66.9 °F 62.2 °F 29.98 in NNW 2.0 mph 8.0 mph 85 % 0.00 in
07:58 66.7 °F 61.0 °F 29.99 in NNW 5.0 mph 8.0 mph 82 % 0.00 in
08:03 66.6 °F 60.3 °F 29.99 in NW 5.0 mph 7.0 mph 80 % 0.00 in
08:08 66.6 °F 60.3 °F 29.99 in WNW 2.0 mph 8.0 mph 80 % 0.00 in
08:13 66.4 °F 60.1 °F 29.99 in WNW 1.0 mph 8.0 mph 80 % 0.00 in
08:18 66.0 °F 59.4 °F 29.99 in NW 3.0 mph 8.0 mph 79 % 0.00 in
08:23 66.0 °F 59.4 °F 30.00 in NNW 4.0 mph 8.0 mph 79 % 0.00 in
08:28 66.0 °F 59.0 °F 30.00 in WNW 2.0 mph 8.0 mph 78 % 0.00 in
08:33 66.0 °F 59.0 °F 30.01 in NNW 3.0 mph 8.0 mph 78 % 0.00 in
08:38 66.0 °F 59.4 °F 30.01 in NNW 3.0 mph 8.0 mph 79 % 0.00 in
08:43 66.0 °F 59.4 °F 30.01 in NW 2.0 mph 8.0 mph 79 % 0.00 in
08:48 66.0 °F 58.6 °F 30.01 in NNW 2.0 mph 7.0 mph 77 % 0.00 in
08:53 66.0 °F 58.3 °F 30.01 in NNW 4.0 mph 7.0 mph 76 % 0.00 in
08:58 66.4 °F 58.6 °F 30.02 in NW 2.0 mph 7.0 mph 76 % 0.00 in
09:03 66.6 °F 57.6 °F 30.02 in NNW 2.0 mph 7.0 mph 73 % 0.00 in
09:08 66.6 °F 57.6 °F 30.02 in NW 2.0 mph 7.0 mph 73 % 0.00 in
09:13 66.7 °F 57.7 °F 30.02 in NW 3.0 mph 7.0 mph 73 % 0.00 in
09:18 66.7 °F 57.7 °F 30.02 in NW 3.0 mph 11.0 mph 73 % 0.00 in
09:28 67.1 °F 56.7 °F 30.02 in WNW 4.0 mph 11.0 mph 69 % 0.00 in
09:33 67.1 °F 55.4 °F 30.02 in WNW 4.0 mph 8.0 mph 66 % 0.00 in
09:38 67.1 °F 53.6 °F 30.03 in NNW 5.0 mph 8.0 mph 62 % 0.00 in
09:43 66.9 °F 54.3 °F 30.03 in West 5.0 mph 8.0 mph 64 % 0.00 in
09:48 67.3 °F 53.4 °F 30.03 in North 3.0 mph 8.0 mph 61 % 0.00 in
09:53 67.3 °F 52.9 °F 30.03 in NE 5.0 mph 8.0 mph 60 % 0.00 in
09:58 67.3 °F 52.9 °F 30.03 in NNE 4.0 mph 11.0 mph 60 % 0.00 in
10:03 67.5 °F 52.7 °F 30.03 in West 9.0 mph 12.0 mph 59 % 0.00 in
10:08 67.3 °F 52.5 °F 30.03 in NW 5.0 mph 12.0 mph 59 % 0.00 in
10:10 67.3 °F 52.9 °F 30.03 in NNW 4.0 mph 12.0 mph 60 % 0.00 in
10:15 67.3 °F 52.9 °F 30.02 in NNW 3.0 mph 12.0 mph 60 % 0.00 in
10:20 67.1 °F 53.2 °F 30.03 in NW 6.0 mph 10.0 mph 61 % 0.00 in
10:25 67.5 °F 54.0 °F 30.02 in West 5.0 mph 10.0 mph 62 % 0.00 in
10:30 67.8 °F 54.0 °F 30.03 in NNE 2.0 mph 9.0 mph 61 % 0.00 in
10:35 67.8 °F 54.0 °F 30.03 in NW 3.0 mph 9.0 mph 61 % 0.00 in
10:40 68.2 °F 54.1 °F 30.02 in NW 3.0 mph 9.0 mph 61 % 0.00 in
10:50 68.9 °F 54.9 °F 30.02 in WNW 4.0 mph 12.0 mph 61 % 0.00 in
10:55 69.3 °F 54.9 °F 30.02 in NW 1.0 mph 12.0 mph 60 % 0.00 in
11:00 69.3 °F 54.3 °F 30.02 in WNW 2.0 mph 9.0 mph 59 % 0.00 in
11:05 69.6 °F 54.7 °F 30.02 in West 1.0 mph 9.0 mph 59 % 0.00 in
11:10 70.0 °F 56.3 °F 30.02 in West 4.0 mph 8.0 mph 62 % 0.00 in
11:15 70.3 °F 54.9 °F 30.03 in SSW 1.0 mph 8.0 mph 58 % 0.00 in
11:20 71.1 °F 55.0 °F 30.03 in NW 2.0 mph 8.0 mph 57 % 0.00 in
11:25 71.2 °F 53.8 °F 30.03 in WNW 5.0 mph 9.0 mph 54 % 0.00 in
11:30 71.1 °F 55.0 °F 30.03 in NW 1.0 mph 9.0 mph 57 % 0.00 in
11:35 71.6 °F 55.0 °F 30.03 in West 2.0 mph 9.0 mph 56 % 0.00 in
11:40 72.0 °F 55.4 °F 30.03 in North 2.0 mph 8.0 mph 56 % 0.00 in
11:45 71.6 °F 53.6 °F 30.03 in NNW 4.0 mph 10.0 mph 53 % 0.00 in
11:50 71.8 °F 54.3 °F 30.03 in NW 3.0 mph 10.0 mph 54 % 0.00 in
11:55 71.4 °F 54.9 °F 30.03 in Calm   10.0 mph 56 % 0.00 in
12:00 71.8 °F 54.3 °F 30.03 in WNW 4.0 mph 9.0 mph 54 % 0.00 in
12:05 72.1 °F 54.1 °F 30.03 in West 3.0 mph 9.0 mph 53 % 0.00 in
12:10 72.9 °F 54.1 °F 30.02 in West 3.0 mph 9.0 mph 52 % 0.00 in
12:15 73.4 °F 54.7 °F 30.02 in North 2.0 mph 9.0 mph 52 % 0.00 in
12:20 73.8 °F 55.6 °F 30.02 in WNW 3.0 mph 9.0 mph 53 % 0.00 in
12:25 73.9 °F 56.3 °F 30.02 in NW 3.0 mph 9.0 mph 54 % 0.00 in
12:30 73.8 °F 54.0 °F 30.02 in NW 3.0 mph 9.0 mph 50 % 0.00 in
12:35 74.1 °F 54.9 °F 30.02 in SW 3.0 mph 9.0 mph 51 % 0.00 in
12:40 74.8 °F 55.0 °F 30.02 in NW 5.0 mph 8.0 mph 50 % 0.00 in
12:46 74.1 °F 53.8 °F 30.02 in Calm   7.0 mph 49 % 0.00 in
12:51 74.5 °F 55.2 °F 30.02 in NNW 6.0 mph 7.0 mph 51 % 0.00 in
12:56 74.5 °F 53.4 °F 30.01 in SW 1.0 mph 7.0 mph 48 % 0.00 in
13:01 74.8 °F 55.0 °F 30.01 in WSW 1.0 mph 8.0 mph 50 % 0.00 in
13:06 75.4 °F 54.9 °F 30.01 in SW 1.0 mph 8.0 mph 49 % 0.00 in
13:11 76.3 °F 56.8 °F 30.01 in WSW 2.0 mph 8.0 mph 51 % 0.00 in
13:16 76.6 °F 56.7 °F 30.01 in WSW 3.0 mph 8.0 mph 50 % 0.00 in
13:21 76.6 °F 53.8 °F 30.01 in NW 4.0 mph 7.0 mph 45 % 0.00 in
13:26 75.7 °F 54.7 °F 30.00 in SSE 1.0 mph 8.0 mph 48 % 0.00 in
13:31 76.1 °F 55.0 °F 30.00 in SW 3.0 mph 8.0 mph 48 % 0.00 in
13:36 77.0 °F 55.8 °F 30.00 in SSW 3.0 mph 8.0 mph 48 % 0.00 in
13:41 77.5 °F 56.3 °F 30.00 in NE 1.0 mph 6.0 mph 48 % 0.00 in
13:46 78.1 °F 57.9 °F 29.99 in SW 4.0 mph 6.0 mph 50 % 0.00 in
13:51 78.3 °F 54.5 °F 29.99 in NW 1.0 mph 6.0 mph 44 % 0.00 in
13:56 78.4 °F 55.9 °F 29.99 in West 3.0 mph 6.0 mph 46 % 0.00 in
14:01 77.9 °F 53.6 °F 29.99 in NNW 5.0 mph 7.0 mph 43 % 0.00 in
14:06 77.2 °F 55.9 °F 29.98 in SE 2.0 mph 7.0 mph 48 % 0.00 in
14:11 77.7 °F 57.6 °F 29.98 in WNW 1.0 mph 7.0 mph 50 % 0.00 in
14:16 77.7 °F 56.5 °F 29.98 in WNW 3.0 mph 9.0 mph 48 % 0.00 in
14:21 78.1 °F 57.4 °F 29.97 in WNW 2.0 mph 9.0 mph 49 % 0.00 in
14:26 78.4 °F 55.9 °F 29.97 in SSW 2.0 mph 9.0 mph 46 % 0.00 in
14:31 79.2 °F 56.7 °F 29.97 in SSW 1.0 mph 6.0 mph 46 % 0.00 in
14:36 79.3 °F 55.6 °F 29.97 in Calm   5.0 mph 44 % 0.00 in
14:41 79.2 °F 55.9 °F 29.97 in NW 4.0 mph 6.0 mph 45 % 0.00 in
14:46 78.8 °F 55.6 °F 29.96 in NW 8.0 mph 8.0 mph 45 % 0.00 in
14:51 78.4 °F 55.9 °F 29.96 in NNE 2.0 mph 9.0 mph 46 % 0.00 in
14:56 78.6 °F 56.1 °F 29.96 in WSW 3.0 mph 9.0 mph 46 % 0.00 in
15:01 79.0 °F 56.5 °F 29.96 in SSW 2.0 mph 9.0 mph 46 % 0.00 in
15:06 79.0 °F 55.8 °F 29.96 in ESE 2.0 mph 7.0 mph 45 % 0.00 in
15:11 78.8 °F 56.3 °F 29.96 in North 2.0 mph 7.0 mph 46 % 0.00 in
15:16 79.2 °F 56.7 °F 29.95 in SSE 2.0 mph 7.0 mph 46 % 0.00 in
15:21 79.3 °F 55.6 °F 29.95 in Calm   6.0 mph 44 % 0.00 in
15:26 79.5 °F 55.0 °F 29.94 in NNW 4.0 mph 6.0 mph 43 % 0.00 in
15:31 79.2 °F 55.9 °F 29.94 in SW 2.0 mph 7.0 mph 45 % 0.00 in
15:36 79.5 °F 55.0 °F 29.94 in NNW 2.0 mph 7.0 mph 43 % 0.00 in
15:41 79.2 °F 55.4 °F 29.94 in WSW 2.0 mph 7.0 mph 44 % 0.00 in
15:46 79.9 °F 57.2 °F 29.94 in Calm   6.0 mph 46 % 0.00 in
15:51 79.9 °F 55.9 °F 29.94 in WSW 2.0 mph 6.0 mph 44 % 0.00 in
15:56 79.7 °F 55.2 °F 29.94 in WNW 2.0 mph 6.0 mph 43 % 0.00 in
16:01 79.3 °F 54.3 °F 29.93 in WNW 1.0 mph 8.0 mph 42 % 0.00 in
16:06 79.2 °F 54.7 °F 29.93 in NW 2.0 mph 8.0 mph 43 % 0.00 in
16:09 79.2 °F 54.7 °F 29.93 in NNW 5.0 mph 8.0 mph 43 % 0.00 in
16:14 79.3 °F 54.9 °F 29.93 in WNW 1.0 mph 8.0 mph 43 % 0.00 in
16:19 79.9 °F 56.7 °F 29.93 in SW 2.0 mph 7.0 mph 45 % 0.00 in
16:24 80.1 °F 56.1 °F 29.92 in SSW 4.0 mph 7.0 mph 44 % 0.00 in
16:29 80.1 °F 54.9 °F 29.92 in NW 2.0 mph 9.0 mph 42 % 0.00 in
16:34 79.9 °F 55.4 °F 29.92 in NW 3.0 mph 9.0 mph 43 % 0.00 in
16:39 79.9 °F 54.7 °F 29.92 in NNW 5.0 mph 9.0 mph 42 % 0.00 in
16:44 79.7 °F 54.0 °F 29.92 in Calm   7.0 mph 41 % 0.00 in
16:49 80.1 °F 54.3 °F 29.91 in Calm   7.0 mph 41 % 0.00 in
16:54 80.2 °F 55.0 °F 29.91 in West 2.0 mph 7.0 mph 42 % 0.00 in
16:59 80.2 °F 56.3 °F 29.91 in SSW 2.0 mph 7.0 mph 44 % 0.00 in
17:04 80.4 °F 55.2 °F 29.91 in South 1.0 mph 5.0 mph 42 % 0.00 in
17:05 80.4 °F 55.2 °F 29.91 in South 5.0 mph 5.0 mph 42 % 0.00 in
17:10 80.6 °F 55.4 °F 29.91 in SSW 1.0 mph 5.0 mph 42 % 0.00 in
17:15 80.8 °F 55.6 °F 29.91 in WSW 1.0 mph 5.0 mph 42 % 0.00 in
17:20 80.8 °F 54.9 °F 29.91 in SW 1.0 mph 5.0 mph 41 % 0.00 in
17:25 80.8 °F 54.1 °F 29.91 in West 1.0 mph 4.0 mph 40 % 0.00 in
17:30 80.8 °F 54.1 °F 29.91 in WNW 2.0 mph 5.0 mph 40 % 0.00 in
17:35 80.4 °F 55.2 °F 29.91 in SW 2.0 mph 5.0 mph 42 % 0.00 in
17:40 80.2 °F 53.8 °F 29.91 in WNW 2.0 mph 6.0 mph 40 % 0.00 in
17:45 80.6 °F 55.4 °F 29.90 in Calm   6.0 mph 42 % 0.00 in
17:50 80.4 °F 53.2 °F 29.90 in WNW 1.0 mph 6.0 mph 39 % 0.00 in
17:55 80.4 °F 53.2 °F 29.90 in WNW 2.0 mph 7.0 mph 39 % 0.00 in
18:00 80.2 °F 53.8 °F 29.90 in NNW 2.0 mph 7.0 mph 40 % 0.00 in
18:05 79.9 °F 52.7 °F 29.90 in NW 1.0 mph 7.0 mph 39 % 0.00 in
18:10 79.7 °F 53.2 °F 29.90 in WSW 2.0 mph 5.0 mph 40 % 0.00 in
18:15 79.9 °F 53.4 °F 29.90 in Calm   5.0 mph 40 % 0.00 in
18:20 79.9 °F 53.4 °F 29.90 in West 2.0 mph 5.0 mph 40 % 0.00 in
18:25 80.2 °F 55.0 °F 29.90 in Calm   4.0 mph 42 % 0.00 in
18:35 79.7 °F 53.2 °F 29.90 in Calm   4.0 mph 40 % 0.00 in
18:40 79.3 °F 52.9 °F 29.90 in SW 2.0 mph 4.0 mph 40 % 0.00 in
18:45 79.2 °F 52.7 °F 29.90 in Calm   4.0 mph 40 % 0.00 in
18:50 79.2 °F 54.1 °F 29.91 in Calm   4.0 mph 42 % 0.00 in
18:55 79.3 °F 54.3 °F 29.91 in Calm   4.0 mph 42 % 0.00 in
19:00 79.3 °F 53.6 °F 29.91 in Calm   2.0 mph 41 % 0.00 in
19:05 78.8 °F 53.1 °F 29.91 in West 1.0 mph 3.0 mph 41 % 0.00 in
19:10 78.6 °F 53.6 °F 29.90 in Calm   3.0 mph 42 % 0.00 in
19:15 78.8 °F 53.8 °F 29.91 in WSW 1.0 mph 3.0 mph 42 % 0.00 in
19:25 78.3 °F 54.0 °F 29.90 in Calm   1.0 mph 43 % 0.00 in
19:30 77.2 °F 54.1 °F 29.90 in WSW 1.0 mph 1.0 mph 45 % 0.00 in
19:35 75.9 °F 54.3 °F 29.90 in Calm   1.0 mph 47 % 0.00 in
19:40 75.0 °F 54.0 °F 29.91 in Calm   1.0 mph 48 % 0.00 in
19:45 73.9 °F 54.1 °F 29.91 in Calm   1.0 mph 50 % 0.00 in
19:50 72.9 °F 54.1 °F 29.91 in Calm   1.0 mph 52 % 0.00 in
19:55 72.3 °F 53.8 °F 29.91 in Calm   1.0 mph 52 % 0.00 in
20:00 71.8 °F 53.8 °F 29.91 in Calm   1.0 mph 53 % 0.00 in
20:06 70.9 °F 54.9 °F 29.91 in Calm   1.0 mph 57 % 0.00 in
20:11 70.2 °F 54.1 °F 29.91 in Calm     57 % 0.00 in
20:16 69.4 °F 54.9 °F 29.91 in Calm     60 % 0.00 in
20:21 68.7 °F 54.7 °F 29.91 in Calm     61 % 0.00 in
20:26 68.4 °F 54.9 °F 29.91 in Calm     62 % 0.00 in
20:31 68.2 °F 55.0 °F 29.91 in Calm     63 % 0.00 in
20:36 67.6 °F 55.4 °F 29.91 in Calm   1.0 mph 65 % 0.00 in
20:41 67.5 °F 55.2 °F 29.91 in Calm   1.0 mph 65 % 0.00 in
20:46 66.7 °F 54.7 °F 29.91 in Calm   1.0 mph 65 % 0.00 in
20:51 66.4 °F 55.0 °F 29.91 in Calm   1.0 mph 67 % 0.00 in
20:56 66.0 °F 55.2 °F 29.91 in Calm   1.0 mph 68 % 0.00 in
21:01 65.7 °F 54.9 °F 29.91 in Calm   1.0 mph 68 % 0.00 in
21:06 65.7 °F 55.6 °F 29.91 in Calm     70 % 0.00 in
21:11 65.5 °F 55.4 °F 29.92 in Calm     70 % 0.00 in
21:16 64.9 °F 55.4 °F 29.92 in Calm     71 % 0.00 in
21:21 64.6 °F 55.0 °F 29.92 in Calm     71 % 0.00 in
21:26 64.0 °F 54.9 °F 29.92 in Calm     72 % 0.00 in
21:31 63.7 °F 54.5 °F 29.92 in Calm     72 % 0.00 in
21:36 63.1 °F 54.3 °F 29.92 in Calm     73 % 0.00 in
21:41 62.8 °F 54.3 °F 29.92 in Calm     74 % 0.00 in
21:46 62.6 °F 55.2 °F 29.93 in Calm     77 % 0.00 in
21:51 63.0 °F 55.9 °F 29.93 in Calm     78 % 0.00 in
21:56 63.1 °F 56.1 °F 29.93 in Calm     78 % 0.00 in
22:01 63.0 °F 55.6 °F 29.93 in Calm     77 % 0.00 in
22:06 62.4 °F 55.4 °F 29.93 in Calm     78 % 0.00 in
22:11 62.2 °F 55.9 °F 29.93 in Calm     80 % 0.00 in
22:16 62.6 °F 56.7 °F 29.93 in Calm   1.0 mph 81 % 0.00 in
22:21 62.8 °F 56.5 °F 29.93 in Calm   1.0 mph 80 % 0.00 in
22:26 62.6 °F 56.3 °F 29.93 in Calm   1.0 mph 80 % 0.00 in
22:31 62.2 °F 55.9 °F 29.93 in Calm     80 % 0.00 in
22:36 62.2 °F 56.3 °F 29.93 in Calm     81 % 0.00 in
22:41 62.1 °F 56.1 °F 29.93 in Calm     81 % 0.00 in
22:51 61.5 °F 55.9 °F 29.94 in Calm     82 % 0.00 in
22:56 61.7 °F 56.1 °F 29.93 in Calm     82 % 0.00 in
23:01 61.3 °F 55.8 °F 29.93 in Calm     82 % 0.00 in
23:06 61.0 °F 55.4 °F 29.93 in Calm     82 % 0.00 in
23:12 60.6 °F 55.4 °F 29.93 in Calm     83 % 0.00 in
23:17 60.4 °F 55.2 °F 29.93 in Calm     83 % 0.00 in
23:22 60.3 °F 55.4 °F 29.93 in Calm     84 % 0.00 in
23:27 60.3 °F 55.8 °F 29.93 in Calm     85 % 0.00 in
23:32 60.1 °F 55.9 °F 29.92 in Calm     86 % 0.00 in
23:37 60.1 °F 55.9 °F 29.92 in WSW 1.0 mph   86 % 0.00 in
23:42 60.3 °F 56.3 °F 29.92 in Calm   1.0 mph 87 % 0.00 in
23:52 60.4 °F 56.5 °F 29.92 in Calm   1.0 mph 87 % 0.00 in
23:57 60.4 °F 56.5 °F 29.92 in Calm   1.0 mph 87 % 0.00 in
Spring, Texas: Villages of Bridgestone
Compliments of Weather Underground - 2.75 mb

Script developed by  Jim McMurry - jmcmurry@mwt.net Adapted for the template by  Wim van der Kuil - Leuven-Template.eu

You find our weather info also at:

UK Metoffice

WeatherCloud

Weather Underground

Mid-South Weather Network

AWEKAS

Citizen Weather Observer Program (CWOP)

HAMweather, WeatherForYou, PWS Weather

Equipment we use:

Weather-station
Davis Vantage Vue

Weather-program
Meteohub

Weather-server
Debian 7.9 x86 (Guest)

Provider
DreamHost

Davis Vantage Vue

Meteohub

Debian 7.9 x86 (Guest)

DreamHost